Flag for U.S.A. Weather past 2 weeks in Compton, California, U.S.A.

Now
72 °F

Sunny.


Feels Like: 75 °F
Forecast: 65 / 77 °F
Wind: 10 mph from West

Location: Hawthorne Municipal Airport

Current Time: Jul 2, 2015 at 7:41:09 PM

Latest Report: Jul 2, 2015 at 6:53 PM


Visibility: 10 mi

Pressure: 29.92 "Hg

Humidity: 68%

Dew point: 61 °F

Location of ComptonLocation

Historic Weather in Compton — Graph

°F

Compton temperature yesterday

Maximum temperature yesterday: 79 °F (at 11:53 AM)
Minimum temperature yesterday: 68 °F (at 12:53 AM)
Average temperature yesterday: 72 °F

Past Weeks' High & Low Weather Summary

 TemperatureHumidityPressure
High86 °F (Jun 30, 7:53 PM)96% (Jun 19, 2:53 AM)30.04 "Hg (Jun 19, 2:53 AM)
Low60 °F (Jun 19, 2:53 AM)30% (Jun 30, 7:53 PM)29.78 "Hg (Jun 30, 7:53 PM)
Average70 °F71%29.91 "Hg
* Reported Jun 17 5:53 PM — Jul 2 5:53 PM, Compton, Weather by CustomWeather, © 2015

Note: Actual official high and low records may vary slightly from our data, if they occured in-between our weather recording intervals... More about our weather records

Advertising

Compton weather history for previous 24 hours

 ConditionsComfort  
Time TempWeatherWind HumidityBarometerVisibility
5:53 PM
Thu, Jul 2
74 °FSunny.13 mph67%29.92 "Hg10 mi
4:53 PM75 °FSunny.13 mph64%29.93 "Hg10 mi
3:53 PM77 °FSunny.13 mph60%29.93 "Hg10 mi
2:53 PM78 °FSunny.12 mph58%29.96 "Hg10 mi
1:53 PM77 °FSunny.13 mph62%29.97 "Hg10 mi
12:53 PM79 °FSunny.6 mph58%29.98 "Hg10 mi
11:53 AM76 °FSunny.6 mph64%29.99 "Hg10 mi
10:53 AM73 °FSunny.7 mph71%30.00 "Hg10 mi
9:53 AM70 °FSunny.8 mph79%29.99 "Hg10 mi
8:53 AM70 °FSunny.6 mph79%30.00 "Hg10 mi
7:53 AM69 °FSunny.3 mph79%29.99 "Hg10 mi
6:53 AM69 °FSunny.5 mph79%29.97 "Hg10 mi
5:53 AM69 °FClear.6 mph79%29.96 "Hg10 mi
4:53 AM69 °FClear.No wind76%29.94 "Hg10 mi
3:53 AM69 °FClear.No wind76%29.94 "Hg10 mi
2:53 AM69 °FPassing clouds.5 mph76%29.94 "Hg10 mi
1:53 AM69 °FPassing clouds.3 mph79%29.95 "Hg10 mi
12:53 AM69 °FPassing clouds.No wind79%29.95 "Hg10 mi
11:53 PM
Wed, Jul 1
69 °FClear.3 mph81%29.95 "Hg10 mi
10:53 PM69 °FClear.6 mph81%29.95 "Hg10 mi
9:53 PM69 °FClear.6 mph81%29.94 "Hg10 mi
8:53 PM69 °FSunny.6 mph81%29.93 "Hg10 mi
7:53 PM70 °FSunny.7 mph79%29.92 "Hg10 mi
Weather by CustomWeather, © 2015

See weather overviewHow to use our weather pages